Location: Bailey Volunteer Fire Department
(33.4359°N, 96.1680°W)
Time: 17:59:54
(UTC+00:00)

YAOGAN 1 - Pass Details

Date: 13 December 2025
Orbit: 605 x 607 km, 97.8° (Epoch: 14 January)

Event Time Altitude Azimuth Distance (km) Brightness Sun altitude
Rises 23:45:37 0° 119° (ESE) 2,854 5.6 -6.0°
Reaches altitude 10° 23:49:12 10° 87° (E) 1,955 4.5 -6.7°
Maximum altitude 23:50:39 12° 67° (ENE) 1,852 4.3 -7.0°
Drops below altitude 10° 23:52:07 10° 46° (NE) 1,959 4.5 -7.3°
Sets 23:55:42 0° 14° (NNE) 2,868 5.6 -8.0°
